Location: Newark
(51.0000°N, 11.4100°E)
Time: 11:43:12
(UTC+00:00)

Transit 2A Rocket - Visible Passes

Search period start: 18 November 2019 00:00
Search period end: 28 November 2019 00:00
Orbit: 594 x 909 km, 66.7° (Epoch: 17 November)

Date Brightness Start Highest point End Pass type
(mag) Time Alt. Az. Time Alt. Az. Time Alt. Az.
18 Nov 6.6 03:36:20 18° NNE 03:37:10 19° NNE 03:40:21 10° ENE visible
18 Nov 4.6 05:16:16 11° NW 05:20:23 79° NE 05:24:53 10° SE visible
19 Nov 7.2 02:55:10 14° NE 02:55:10 14° NE 02:56:46 10° ENE visible
19 Nov 5.3 04:35:05 21° NNW 04:37:47 49° NE 04:42:07 10° ESE visible
20 Nov 5.9 03:53:58 28° N 03:55:05 32° NE 03:59:07 10° ESE visible
20 Nov 5.0 05:33:53 12° NW 05:37:44 44° WSW 05:42:03 10° SSE visible
21 Nov 6.6 03:12:52 23° NE 03:12:52 23° NE 03:15:52 10° E visible
21 Nov 4.4 04:52:48 25° NW 04:55:18 75° SW 04:59:48 10° SSE visible
22 Nov 7.6 02:31:51 12° ENE 02:31:51 12° ENE 02:32:24 10° ENE visible
22 Nov 4.7 04:11:47 50° N 04:12:45 67° NE 04:17:14 10° SE visible
22 Nov 6.1 05:51:45 10° WNW 05:54:52 19° WSW 05:58:03 10° SSW visible
23 Nov 5.8 03:30:49 39° ENE 03:30:49 39° ENE 03:34:24 10° ESE visible
23 Nov 5.4 05:10:46 23° WNW 05:12:33 32° WSW 05:16:35 10° S visible
24 Nov 7.2 02:49:56 17° E 02:49:56 17° E 02:51:17 10° E visible
24 Nov 4.6 04:29:52 52° WSW 04:30:10 53° WSW 04:34:36 10° SSE visible
25 Nov 5.4 03:49:03 45° SE 03:49:03 45° SE 03:52:14 10° SE visible
25 Nov 6.4 05:28:59 13° W 05:29:35 14° WSW 05:31:50 10° SW visible
26 Nov 7.0 03:08:18 18° ESE 03:08:18 18° ESE 03:09:34 10° SE visible
26 Nov 6.0 04:48:15 21° SW 04:48:15 21° SW 04:50:55 10° SSW visible
27 Nov 6.4 04:07:34 20° S 04:07:34 20° S 04:09:14 10° S visible
